User: anonymous   Login
Location: Unspecified
(0.0000°N, 0.0000°E)
Time: 08:06:44
(UTC+00:00)
Language:

CHUBUSAT 1 - Orbit

View from above orbital plane
View from above orbital plane
View from above satellite
View from above satellite

Ground track
Ground track

The orbit data is extracted from the following two-line orbital elements,

1 40300U 14070C   19345.77660769  .00000506  00000-0  24870-4 0  9995
2 40300  97.3120  55.3612 0020310 152.5681 323.2715 15.22282539282809
Epoch (UTC): 11 December 2019 18:38:18
Eccentricity: 0.0020310
inclination: 97.3120°
perigee height: 485 km
apogee height: 513 km
right ascension of ascending node: 55.3612°
argument of perigee: 152.5681°
revolutions per day: 15.22282539
mean anomaly at epoch: 323.2715°
orbit number at epoch: 28280

The dashed part of the orbit path shows where the satellite is in the earth's shadow,  

DLR